Wind_Speed
12 12 13 15 17 19 22 24 27 30 32 34 37 39 42 45 48 50 53 54 55 56 56 55 56 57 58 59 60 60 61 60 59 56 54 52 49 46 43 41 38 36 35 35
14 15 16 18 20 22 25 27 29 31 33 36 39 42 45 48 51 53 54 55 56 55 54 54 56 57 58 59 60 62 62 62 60 57 54 52 49 46 43 41 38 35 33 32
17 17 18 20 23 25 26 28 31 33 36 38 40 43 48 50 52 54 56 56 55 54 53 55 57 59 60 61 61 62 62 61 59 56 54 51 49 47 44 43 41 38 36 34
18 19 20 22 24 26 27 29 31 34 37 41 43 45 49 52 54 55 56 56 54 53 53 56 58 60 61 61 61 61 60 58 56 53 51 48 47 45 44 43 42 40 38 36
19 21 22 24 26 28 30 30 33 36 40 43 45 46 47 51 53 54 55 54 53 53 55 57 59 60 60 60 60 59 57 54 50 48 47 45 44 43 42 41 41 40 39 36
21 23 25 26 28 30 32 33 35 39 42 45 48 50 50 52 54 55 55 54 53 54 56 58 59 60 60 60 59 57 54 50 47 45 42 41 40 39 39 39 39 39 38 36
23 24 25 27 29 31 34 36 38 41 44 46 50 53 54 55 56 56 56 54 53 54 56 58 59 60 59 58 56 53 50 46 43 41 38 35 35 35 35 35 37 38 37 36
23 24 25 27 29 31 33 35 38 41 44 47 50 52 54 55 56 56 55 53 52 53 56 58 59 60 58 56 54 50 47 43 40 36 32 30 28 28 30 32 33 35 35 34
24 25 26 28 30 31 33 36 39 42 45 48 51 53 54 55 56 56 54 52 52 53 55 57 59 59 57 54 52 49 45 40 36 32 28 25 22 21 22 25 28 30 32 31
24 25 26 28 29 31 34 37 40 44 47 49 52 54 55 56 56 55 53 51 51 53 55 57 58 58 55 52 50 47 42 38 34 29 24 20 17 16 16 18 21 24 26 27
24 26 27 29 30 32 35 38 41 44 47 50 52 54 55 55 56 54 52 51 51 52 54 56 56 55 53 51 49 46 41 36 31 26 20 16 12 9 10 12 15 18 21 22
25 27 28 30 31 33 36 38 41 44 47 50 52 53 54 55 56 54 52 50 50 51 53 54 55 54 52 50 48 45 40 35 30 25 18 13 9 6 5 7 10 13 16 19
26 27 29 30 32 34 36 39 42 45 48 50 52 53 54 55 55 53 51 49 49 50 51 53 53 53 51 49 46 42 38 34 29 24 19 13 9 5 2 2 6 10 13 15
27 28 29 31 33 35 37 40 43 46 48 50 52 53 53 54 54 52 50 48 47 48 50 51 51 51 49 47 44 40 37 33 28 23 19 16 12 9 6 4 5 8 10 12
27 28 30 32 34 36 38 41 43 46 48 50 51 52 52 52 52 51 49 47 46 47 48 48 49 49 48 45 42 39 36 31 27 23 19 16 14 11 9 7 7 7 8 10
29 30 32 34 36 38 40 42 44 46 48 49 50 51 51 51 51 50 49 46 45 44 45 46 46 47 46 43 41 38 35 30 26 23 20 17 15 14 12 11 10 9 9 9
31 32 34 36 38 40 41 43 45 47 48 49 50 50 50 50 49 48 47 45 43 42 43 43 44 44 43 41 39 37 34 30 26 24 21 19 17 15 15 14 14 13 12 11
34 35 36 38 39 41 42 43 45 47 48 49 49 49 49 48 48 47 45 43 41 40 40 40 41 41 40 39 37 35 33 31 27 24 22 20 19 18 17 16 16 15 15 14
35 37 38 39 40 41 42 43 45 47 48 48 48 48 48 47 47 46 44 41 38 37 36 36 37 38 37 36 35 33 31 30 28 25 23 21 20 19 18 18 18 18 18 17
37 38 39 40 40 40 42 43 45 46 47 47 47 46 46 45 44 43 42 39 37 35 34 33 33 34 34 33 32 30 29 28 26 25 23 22 21 20 20 20 20 19 19 19
39 39 40 40 40 40 41 43 44 45 46 46 46 45 44 43 42 41 39 37 34 32 31 30 30 30 30 30 30 29 28 26 24 23 22 22 22 21 21 21 21 21 21 22
41 41 40 39 39 40 41 43 44 45 46 46 45 44 43 41 40 39 37 35 32 29 27 26 26 26 27 27 27 27 26 25 23 22 22 21 21 21 22 22 22 22 23 24
43 43 41 39 39 40 42 43 45 45 45 45 44 42 41 39 38 36 35 33 30 27 24 23 22 22 23 23 23 24 24 24 22 22 21 21 21 21 22 23 23 24 25 25
45 43 41 40 40 41 42 44 45 45 45 44 43 41 39 38 36 35 33 31 29 25 22 20 19 19 19 19 19 20 21 21 21 20 21 21 21 21 22 22 23 24 25 25
45 43 41 41 41 42 42 43 44 44 43 42 41 39 38 36 34 33 31 30 27 24 20 17 15 15 15 15 15 15 16 18 19 19 18 18 19 20 21 21 21 21 22 22
45 43 42 41 41 40 41 42 43 42 42 40 39 37 36 34 33 31 29 28 26 22 19 15 13 11 11 11 11 12 12 13 15 16 16 16 16 17 18 18 18 18 19 20
44 42 42 41 41 41 41 42 42 41 40 38 36 35 34 32 31 29 28 26 25 21 17 14 11 9 8 7 8 8 8 9 10 11 12 13 14 15 15 15 15 16 17 17
Wind_Direction
330 330 327 327 327 328 330 331 329 330 330 331 330 330 329 328 328 328 326 325 323 322 321 320 318 317 315 313 310 308 305 303 299 295 291 287 284 281 277 273 270 268 266 263
327 327 327 328 328 330 332 331 330 331 332 333 333 332 330 330 330 328 327 326 324 323 322 320 319 318 316 314 311 308 305 302 298 294 289 286 281 276 273 268 265 264 262 262
320 323 326 328 330 331 332 331 331 333 334 335 335 334 332 331 330 329 328 327 326 325 323 322 321 320 318 315 312 310 306 303 298 293 288 284 279 273 268 264 260 258 259 259
316 322 328 329 329 330 333 333 333 333 334 335 337 337 334 332 332 331 329 328 328 326 325 324 323 322 321 319 315 313 309 305 300 295 289 283 278 273 267 261 256 254 255 255
319 325 329 329 330 332 334 335 334 335 336 337 337 338 336 333 332 332 332 331 331 330 329 327 326 325 324 322 319 316 313 309 304 299 292 283 277 272 265 259 254 251 250 251
324 328 330 330 331 332 334 335 336 337 338 338 337 337 338 337 335 335 335 334 333 332 331 330 329 328 326 325 322 320 317 313 308 303 297 287 278 271 264 257 251 248 247 247
324 327 328 328 330 332 333 336 337 338 339 339 339 339 339 339 338 338 337 336 335 334 334 333 332 331 330 329 327 324 321 317 312 307 300 291 279 270 261 254 248 246 245 244
323 326 327 328 330 332 333 334 336 337 338 339 340 340 340 340 339 339 338 337 337 336 335 335 335 335 335 333 332 329 325 322 317 313 304 296 285 272 260 250 245 243 243 242
323 325 326 328 329 330 331 334 335 337 338 339 341 342 342 341 341 340 339 339 338 338 338 338 338 338 338 338 337 335 331 328 324 320 311 302 291 276 262 250 242 240 240 239
321 323 324 325 327 329 331 333 335 336 338 340 342 342 343 342 342 341 340 340 339 340 340 342 342 343 343 343 343 342 340 336 333 328 321 311 298 282 263 248 238 235 234 233
319 320 323 325 327 330 332 333 334 336 339 341 342 343 343 343 342 342 341 341 341 342 343 345 346 347 348 348 348 348 347 345 344 342 335 325 313 291 267 247 235 230 226 225
318 321 323 326 328 329 330 331 334 336 338 340 342 342 343 343 343 343 343 343 343 344 345 347 349 350 351 351 352 353 355 355 355 354 350 345 338 315 283 245 227 220 217 217
318 320 322 324 325 326 328 330 333 335 338 340 341 342 343 344 344 344 344 344 345 346 348 350 352 353 354 355 356 358 360 1 4 6 8 7 6 4 347 216 207 204 204 205
317 319 320 321 322 324 327 330 332 335 337 339 340 342 343 344 344 345 345 345 346 348 351 353 355 357 358 359 0 2 5 7 11 16 23 28 33 44 63 103 147 170 182 187
314 316 318 319 321 323 326 329 332 334 336 338 339 341 343 344 345 345 346 347 348 350 352 354 357 359 1 3 5 6 10 13 18 23 29 35 44 54 66 88 116 139 155 166
311 314 316 318 320 322 325 328 330 332 333 336 338 340 342 344 346 346 346 347 349 350 353 356 359 1 4 7 9 12 15 20 25 30 36 42 49 58 66 78 94 110 125 138
309 313 315 316 318 321 324 326 328 329 331 334 337 339 342 345 346 346 346 347 349 351 354 357 0 3 6 10 13 16 20 25 30 35 40 46 53 62 70 78 88 99 108 117
307 310 312 314 317 319 321 324 326 327 330 333 336 338 341 344 345 346 347 348 349 351 354 357 1 5 8 13 17 21 25 29 33 38 44 51 58 66 73 80 87 92 98 106
304 306 310 312 315 317 319 321 323 326 329 332 335 338 340 343 345 346 347 348 349 351 354 357 2 6 10 14 19 24 28 32 37 43 48 54 61 66 73 81 87 91 95 99
301 305 308 310 313 314 316 319 323 325 328 331 334 337 339 341 343 345 346 347 348 351 354 358 2 7 12 17 21 25 29 33 39 45 50 55 60 67 74 79 85 91 95 100
301 303 306 308 309 311 314 318 322 325 328 331 333 335 338 340 342 343 345 346 347 349 353 357 2 7 13 18 23 26 31 35 41 47 54 58 63 67 73 80 86 92 97 102
298 301 303 305 306 309 312 316 320 323 326 329 331 334 336 338 340 341 342 345 346 348 351 355 0 6 12 19 24 28 33 38 43 50 57 62 66 70 76 83 89 95 100 104
296 299 302 303 305 307 310 314 317 320 324 327 330 332 334 336 337 339 340 342 344 345 347 352 358 4 11 17 24 31 36 41 47 53 61 67 71 76 81 86 90 94 99 103
294 297 298 300 301 302 305 310 314 317 321 324 327 329 331 333 335 337 338 340 341 342 344 347 354 1 8 16 22 30 38 44 51 58 65 70 74 79 85 90 94 98 102 103
292 294 295 296 297 297 300 304 310 314 318 322 324 327 329 331 333 335 336 337 338 338 340 342 347 355 4 13 21 29 37 45 51 59 68 74 78 83 88 93 97 99 102 106
289 291 292 294 295 296 299 302 307 312 315 319 321 323 326 328 330 332 333 335 336 335 334 336 339 346 355 6 16 26 36 46 52 58 67 76 83 87 91 95 98 100 105 109
285 287 289 290 292 294 298 302 306 309 312 315 317 320 322 324 327 328 330 332 333 332 329 327 329 333 339 350 4 18 32 47 57 62 68 77 85 92 97 99 100 103 109 113
Height
5839 5837 5835 5832 5829 5826 5822 5819 5814 5810 5804 5799 5792 5785 5777 5769 5761 5752 5743 5734 5724 5714 5704 5695 5686 5676 5667 5657 5648 5639 5631 5623 5616 5611 5607 5604 5601 5600 5599 5598 5598 5599 5599 5600
5837 5835 5832 5829 5826 5822 5818 5814 5810 5805 5800 5793 5786 5777 5769 5760 5751 5742 5733 5723 5713 5703 5693 5683 5673 5663 5653 5643 5632 5622 5613 5604 5597 5592 5588 5585 5583 5582 5582 5582 5583 5584 5586 5587
5835 5832 5830 5826 5822 5819 5815 5810 5805 5799 5794 5787 5780 5771 5761 5752 5743 5733 5722 5712 5701 5691 5681 5670 5660 5649 5638 5627 5616 5605 5594 5585 5577 5571 5568 5565 5564 5564 5564 5566 5567 5570 5572 5574
5832 5830 5826 5825 5819 5815 5811 5806 5800 5794 5788 5780 5773 5765 5754 5743 5733 5723 5712 5701 5691 5680 5670 5658 5646 5635 5623 5611 5599 5587 5576 5566 5557 5551 5547 5545 5544 5545 5546 5548 5551 5555 5558 5561
5829 5825 5822 5819 5814 5809 5805 5801 5795 5789 5781 5773 5765 5759 5750 5738 5726 5715 5703 5691 5680 5669 5658 5646 5634 5621 5609 5596 5582 5570 5558 5548 5539 5533 5528 5526 5525 5526 5528 5531 5535 5539 5544 5548
5824 5821 5817 5815 5810 5804 5800 5795 5789 5782 5774 5766 5757 5749 5741 5729 5717 5705 5693 5681 5670 5658 5647 5635 5622 5608 5595 5581 5568 5555 5543 5532 5524 5517 5512 5508 5508 5509 5511 5515 5520 5525 5530 5535
5820 5817 5814 5810 5805 5801 5796 5791 5783 5775 5768 5760 5750 5740 5729 5718 5706 5695 5683 5672 5661 5649 5637 5625 5611 5597 5583 5569 5555 5542 5530 5519 5511 5503 5497 5494 5493 5493 5496 5500 5505 5511 5517 5522
5817 5813 5812 5806 5801 5797 5792 5785 5778 5771 5763 5754 5745 5734 5723 5711 5699 5687 5676 5665 5653 5642 5630 5616 5602 5587 5573 5558 5544 5531 5519 5508 5499 5492 5486 5482 5480 5481 5483 5487 5493 5498 5504 5510
5813 5811 5806 5801 5796 5792 5786 5780 5773 5765 5757 5748 5738 5727 5716 5704 5693 5681 5669 5658 5647 5635 5623 5608 5594 5578 5564 5550 5536 5522 5510 5499 5490 5483 5477 5473 5471 5471 5473 5477 5482 5488 5494 5500
5809 5805 5801 5797 5792 5787 5781 5774 5767 5759 5751 5741 5731 5720 5710 5698 5687 5675 5663 5652 5641 5629 5616 5602 5588 5572 5557 5543 5529 5516 5504 5493 5484 5476 5471 5467 5465 5465 5467 5470 5474 5480 5485 5491
5804 5801 5797 5792 5787 5781 5775 5769 5762 5753 5745 5735 5725 5715 5704 5693 5681 5669 5658 5647 5635 5623 5611 5597 5583 5568 5553 5539 5526 5512 5500 5490 5481 5473 5468 5465 5463 5462 5464 5466 5469 5474 5479 5485
5799 5796 5791 5787 5782 5776 5770 5764 5757 5749 5740 5730 5720 5710 5699 5687 5676 5664 5653 5642 5631 5619 5607 5593 5579 5565 5551 5537 5524 5511 5500 5490 5481 5474 5468 5465 5463 5463 5463 5464 5467 5471 5476 5481
5794 5790 5786 5781 5777 5771 5766 5759 5751 5743 5735 5725 5715 5704 5694 5683 5672 5660 5649 5638 5627 5616 5604 5591 5578 5564 5550 5537 5524 5512 5501 5492 5483 5476 5471 5467 5465 5464 5464 5465 5467 5470 5474 5478
5788 5785 5781 5776 5772 5766 5760 5753 5746 5738 5729 5719 5710 5700 5690 5679 5668 5657 5646 5635 5624 5613 5602 5589 5577 5564 5551 5538 5526 5515 5504 5495 5487 5481 5476 5472 5470 5468 5467 5468 5469 5472 5475 5478
5783 5780 5776 5771 5766 5761 5755 5748 5740 5732 5724 5715 5706 5696 5686 5675 5664 5653 5642 5632 5622 5611 5601 5589 5578 5565 5553 5541 5529 5518 5509 5500 5493 5487 5482 5479 5476 5474 5473 5473 5474 5475 5477 5480
5778 5774 5770 5766 5760 5755 5748 5742 5735 5727 5719 5710 5701 5692 5682 5671 5660 5650 5639 5630 5620 5611 5601 5590 5579 5568 5556 5544 5534 5523 5514 5506 5499 5493 5489 5485 5482 5480 5479 5479 5479 5480 5481 5483
5772 5768 5764 5759 5754 5748 5742 5735 5729 5721 5713 5705 5696 5687 5677 5668 5658 5648 5638 5628 5619 5610 5600 5591 5581 5570 5560 5549 5539 5530 5521 5513 5506 5501 5496 5493 5490 5488 5486 5485 5485 5486 5487 5488
5765 5761 5757 5752 5747 5741 5735 5729 5722 5715 5707 5699 5691 5682 5673 5664 5655 5646 5636 5627 5618 5610 5601 5592 5583 5574 5564 5554 5545 5536 5528 5521 5514 5508 5504 5500 5497 5495 5494 5493 5493 5492 5493 5493
5757 5753 5749 5744 5739 5734 5728 5722 5716 5709 5701 5694 5685 5677 5668 5660 5651 5642 5634 5626 5618 5611 5603 5594 5586 5577 5568 5559 5551 5543 5536 5529 5523 5517 5513 5509 5506 5504 5502 5501 5501 5501 5501 5501
5749 5745 5741 5736 5731 5726 5720 5715 5709 5702 5695 5688 5680 5672 5664 5657 5649 5641 5632 5624 5617 5610 5603 5596 5589 5581 5573 5565 5557 5550 5543 5537 5531 5526 5522 5518 5515 5513 5511 5510 5509 5509 5509 5510
5739 5736 5731 5727 5723 5718 5712 5707 5701 5695 5688 5682 5675 5668 5660 5653 5645 5638 5631 5624 5616 5610 5604 5597 5591 5584 5578 5570 5563 5556 5550 5545 5539 5535 5531 5527 5524 5522 5520 5519 5518 5518 5518 5519
5729 5725 5722 5718 5714 5709 5704 5699 5694 5688 5682 5676 5669 5663 5656 5649 5642 5635 5628 5622 5616 5610 5604 5599 5593 5587 5581 5575 5569 5563 5557 5552 5547 5543 5539 5536 5534 5531 5530 5528 5527 5527 5527 5528
5718 5715 5712 5708 5704 5700 5696 5691 5686 5681 5675 5670 5664 5658 5651 5645 5639 5633 5626 5620 5614 5609 5604 5599 5594 5590 5585 5580 5575 5569 5564 5559 5555 5551 5548 5545 5542 5541 5539 5538 5538 5537 5538 5539
5707 5704 5701 5698 5695 5691 5687 5683 5678 5673 5668 5663 5658 5652 5647 5641 5635 5629 5623 5618 5612 5607 5603 5599 5595 5591 5587 5583 5579 5575 5570 5566 5562 5559 5556 5554 5552 5550 5549 5548 5548 5548 5549 5550
5695 5693 5691 5688 5685 5682 5678 5674 5670 5666 5661 5656 5652 5646 5641 5636 5631 5626 5620 5615 5610 5606 5602 5598 5595 5592 5589 5586 5583 5579 5576 5572 5569 5566 5564 5562 5561 5559 5558 5558 5558 5558 5558 5559
5683 5681 5680 5678 5675 5672 5669 5665 5662 5658 5654 5650 5645 5640 5635 5631 5626 5621 5617 5612 5607 5603 5600 5597 5594 5592 5590 5587 5585 5583 5580 5577 5575 5573 5571 5569 5568 5567 5567 5566 5566 5566 5567 5568
5670 5669 5668 5667 5665 5662 5659 5656 5653 5650 5646 5643 5639 5634 5630 5626 5621 5617 5613 5608 5604 5601 5597 5595 5593 5591 5589 5588 5586 5585 5583 5581 5579 5578 5576 5575 5574 5574 5573 5573 5574 5574 5574 5575